(17763) = 1994 CS12 = 1998 EG

Discovered at Caussols on 1998-03-01 by ODAS.

Orbit

Orbit type: Main Belt

Note: WebGL enabled browser required.

epoch2024-03-31.0
epoch JD2460400.5
perihelion date2020-08-11.89297
perihelion JD2459073.39297
argument of perihelion (°)103.60514
ascending node (°)137.77613
inclination (°)6.81555
eccentricity0.0459379
perihelion distance (AU)2.5057717
Tisserand w.r.t. Jupiter3.4
ΔV w.r.t. Earth (km/sec)10.1
semimajor axis (AU)2.6264241
mean anomaly (°)307.29996
mean daily motion (°/day)0.23155630
aphelion distance (AU)2.747
period (years)4.26
P-vector [x]-0.47436299
P-vector [y]-0.84660457
P-vector [z]-0.24133061
Q-vector [x]0.87670940
Q-vector [y]-0.42947965
Q-vector [z]-0.21662840
absolute magnitude14.98
phase slope0.15
uncertainty0
referenceMPEC 2024-F74
observations used1918
oppositions22
arc length (days)11000
first opposition used1994
last opposition used2024
residual rms (arc-secs)0.67
perturbers coarse indicatorM-v
perturbers precise indicator003Ek
first observation date used1994-02-07.0
last observation date used2024-03-21.0
computer nameMPCLINUX
JD of orbit computation2456966.862529
perihelion JD uncertainty (days)2.8078E-04
argument of perihelion uncertainty (°)7.6078E-05
ascending node uncertainty (°)4.2126E-05
inclination uncertainty (°)5.2024E-06
eccentricity uncertainty 4.2315E-08
perihelion distance uncertainty (AU)1.1233E-07
Minimum Orbit Intersection Distances (in AU)
for orbit epoch: 2460400.5, reference: E2024-GH2
Mercury2.04798
Venus1.78593
Earth1.50319
Mars0.91928
Jupiter2.25636
Saturn6.31821
Uranus15.8356
Neptune27.0987

Observations

1951 total observations over interval: 1994 02 07.22153 – 2024 03 21.434187
These data are available for download (format description).

Date (UT) J2000 RA J2000 Dec Magn Location Ref
1994 02 07.22153 11 06 02.99 +09 02 08.4 18.6   809 – European Southern Observatory, La Silla MPC 23638
1994 02 07.23333 11 06 02.48 +09 02 13.5   809 – European Southern Observatory, La Silla MPC 23638
1994 02 07.24514 11 06 02.07 +09 02 18.2   809 – European Southern Observatory, La Silla MPC 23638
1994 02 09.20139 11 04 53.52 +09 16 00.4   809 – European Southern Observatory, La Silla MPC 23638
1994 02 09.21319 11 04 53.04 +09 16 05.0   809 – European Southern Observatory, La Silla MPC 23638
1994 02 09.22500 11 04 52.62 +09 16 09.8   809 – European Southern Observatory, La Silla MPC 23638
1994 02 12.24375 11 02 57.40 +09 38 09.7 18.5   809 – European Southern Observatory, La Silla MPC 23844
1994 02 12.25556 11 02 56.85 +09 38 15.1   809 – European Southern Observatory, La Silla MPC 23844
1994 02 12.26736 11 02 56.39 +09 38 19.7   809 – European Southern Observatory, La Silla MPC 23844
1994 02 15.45729 11 00 43.92 +10 02 18.4   691 – Steward Observatory, Kitt Peak-Spacewatch MPC 23825
1994 02 15.50971 11 00 41.61 +10 02 42.8 18.6 V 691 – Steward Observatory, Kitt Peak-Spacewatch MPC 23825
1998 03 01.83979 08 33 33.56 +18 50 32.1 19.5 V 910 – Caussols-ODAS MPS 584
1998 03 01.86289 08 33 32.81 +18 50 38.1 19.2 V 910 – Caussols-ODAS MPS 584
1998 03 01.88574 08 33 32.05 +18 50 43.7 19.5 V 910 – Caussols-ODAS MPS 584
1998 03 02.86957 08 33 02.20 +18 54 57.1 19.4 V 910 – Caussols-ODAS MPS 584
1998 03 02.88451 08 33 01.73 +18 55 00.7 19.4 V 910 – Caussols-ODAS MPS 584
1998 03 02.89731 08 33 01.32 +18 55 04.1 19.5 V 910 – Caussols-ODAS MPS 584
1998 03 24.90393 08 28 50.40 +19 57 57.9 19.3 V 910 – Caussols-ODAS MPS 686
1998 03 24.92768 08 28 50.55 +19 57 59.9 18.9 V 910 – Caussols-ODAS MPS 686
1998 03 24.95076 08 28 50.68 +19 58 02.3 19.3 V 910 – Caussols-ODAS MPS 686
1998 03 25.87275 08 28 58.07 +19 59 21.4 19.6 V 910 – Caussols-ODAS MPS 686
1998 03 25.89600 08 28 58.26 +19 59 23.2 18.9 V 910 – Caussols-ODAS MPS 686
1998 03 25.91962 08 28 58.41 +19 59 25.3 19.0 V 910 – Caussols-ODAS MPS 686
1999 06 09.31152 16 32 37.80 -11 28 16.6 18.4   704 – Lincoln Laboratory ETS, New Mexico MPS 4819
1999 06 09.33031 16 32 36.73 -11 28 17.0 19.0   704 – Lincoln Laboratory ETS, New Mexico MPS 4819
1999 06 09.33963 16 32 36.19 -11 28 17.9 19.2   704 – Lincoln Laboratory ETS, New Mexico MPS 4819
1999 06 09.34897 16 32 35.67 -11 28 17.0 19.2   704 – Lincoln Laboratory ETS, New Mexico MPS 4819
1999 06 14.23583 16 28 23.66 -11 30 08.1 19.2   704 – Lincoln Laboratory ETS, New Mexico MPS 4819
1999 06 14.24820 16 28 23.00 -11 30 08.1 19.9   704 – Lincoln Laboratory ETS, New Mexico MPS 4819
1999 06 14.27301 16 28 21.73 -11 30 10.3 20.0   704 – Lincoln Laboratory ETS, New Mexico MPS 4819
1999 06 14.28541 16 28 21.05 -11 30 10.8 19.6   704 – Lincoln Laboratory ETS, New Mexico MPS 4819
2000 08 31.39285 00 53 27.94 -01 40 41.9 18.9   704 – Lincoln Laboratory ETS, New Mexico MPS 17433
2000 08 31.40598 00 53 27.55 -01 40 47.4 19.4   704 – Lincoln Laboratory ETS, New Mexico MPS 17433
2000 08 31.42023 00 53 27.12 -01 40 52.0 19.6   704 – Lincoln Laboratory ETS, New Mexico MPS 17433
2000 08 31.43346 00 53 26.82 -01 40 57.3 19.2   704 – Lincoln Laboratory ETS, New Mexico MPS 17433
2000 08 31.44697 00 53 26.43 -01 41 02.6 19.5   704 – Lincoln Laboratory ETS, New Mexico MPS 17433
2000 09 02.33307 00 52 36.09 -01 53 11.3 18.3   704 – Lincoln Laboratory ETS, New Mexico MPS 17433
2000 09 02.34660 00 52 35.74 -01 53 17.2 18.1   704 – Lincoln Laboratory ETS, New Mexico MPS 17433
2000 09 02.35946 00 52 35.27 -01 53 21.5 18.2   704 – Lincoln Laboratory ETS, New Mexico MPS 17433
2000 09 02.37346 00 52 34.90 -01 53 27.1 18.1   704 – Lincoln Laboratory ETS, New Mexico MPS 17433
2000 09 04.34199 00 51 37.19 -02 06 30.7 18.5 R 699 – Lowell Observatory-LONEOS MPS 18947
2000 09 04.36781 00 51 36.38 -02 06 42.5   699 – Lowell Observatory-LONEOS MPS 18947
2000 09 04.39364 00 51 35.49 -02 06 52.5   699 – Lowell Observatory-LONEOS MPS 18947
2000 09 04.41938 00 51 34.68 -02 07 03.2   699 – Lowell Observatory-LONEOS MPS 18947
2000 09 05.33327 00 51 06.32 -02 13 14.8 18.7   704 – Lincoln Laboratory ETS, New Mexico MPS 17433
2000 09 05.34705 00 51 05.93 -02 13 20.3 19.4   704 – Lincoln Laboratory ETS, New Mexico MPS 17433
2000 09 05.36036 00 51 05.39 -02 13 26.1 19.0   704 – Lincoln Laboratory ETS, New Mexico MPS 17433
2000 09 05.37391 00 51 04.95 -02 13 30.6 19.7   704 – Lincoln Laboratory ETS, New Mexico MPS 17433
2000 09 23.33916 00 38 52.64 -04 23 28.0 17.9 R 699 – Lowell Observatory-LONEOS MPS 30617
2000 09 23.35461 00 38 51.85 -04 23 34.8   699 – Lowell Observatory-LONEOS MPS 30617
2000 09 23.37005 00 38 51.18 -04 23 41.5   699 – Lowell Observatory-LONEOS MPS 30617
2000 09 23.38546 00 38 50.40 -04 23 48.2   699 – Lowell Observatory-LONEOS MPS 30617
2000 09 24.33240 00 38 05.43 -04 30 40.8 17.7   704 – Lincoln Laboratory ETS, New Mexico MPS 18947
2000 09 24.34764 00 38 04.70 -04 30 47.2 18.0   704 – Lincoln Laboratory ETS, New Mexico MPS 18947
2000 09 24.36309 00 38 03.93 -04 30 53.7 17.7   704 – Lincoln Laboratory ETS, New Mexico MPS 18947
2000 09 24.37944 00 38 03.11 -04 31 00.7 17.8   704 – Lincoln Laboratory ETS, New Mexico MPS 18947
2000 09 24.39459 00 38 02.43 -04 31 07.1 18.2   704 – Lincoln Laboratory ETS, New Mexico MPS 18947
2000 09 25.32463 00 37 17.91 -04 37 49.9 18.1   704 – Lincoln Laboratory ETS, New Mexico MPS 18947
2000 09 25.35529 00 37 16.34 -04 38 02.6 18.8   704 – Lincoln Laboratory ETS, New Mexico MPS 18947
2000 09 25.37045 00 37 15.58 -04 38 09.4 18.1   704 – Lincoln Laboratory ETS, New Mexico MPS 18947
2000 09 25.38564 00 37 14.86 -04 38 16.0 18.1   704 – Lincoln Laboratory ETS, New Mexico MPS 18947
2000 09 25.40079 00 37 14.08 -04 38 22.5 18.3   704 – Lincoln Laboratory ETS, New Mexico MPS 18947
2000 10 01.32092 00 32 26.09 -05 19 34.6 18.0 R 699 – Lowell Observatory-LONEOS MPS 22008
2000 10 01.34090 00 32 25.02 -05 19 43.7   699 – Lowell Observatory-LONEOS MPS 22008
2000 10 01.36092 00 32 24.00 -05 19 50.3   699 – Lowell Observatory-LONEOS MPS 22008
2000 10 01.38094 00 32 23.02 -05 19 58.9   699 – Lowell Observatory-LONEOS MPS 22008
2000 10 02.27104 00 31 39.71 -05 25 54.2 18.2   704 – Lincoln Laboratory ETS, New Mexico MPS 18947
2000 10 02.28652 00 31 38.89 -05 26 00.1 18.4   704 – Lincoln Laboratory ETS, New Mexico MPS 18947
2000 10 02.30115 00 31 38.14 -05 26 06.2 18.8   704 – Lincoln Laboratory ETS, New Mexico MPS 18947
2000 10 02.31601 00 31 37.35 -05 26 11.0 18.6   704 – Lincoln Laboratory ETS, New Mexico MPS 18947
2001 12 11.37967 07 27 53.15 +15 38 37.5 19.2   704 – Lincoln Laboratory ETS, New Mexico MPS 46058
2001 12 11.39495 07 27 52.49 +15 38 38.2 20.0   704 – Lincoln Laboratory ETS, New Mexico MPS 46058
2001 12 11.41048 07 27 51.95 +15 38 40.7 19.3   704 – Lincoln Laboratory ETS, New Mexico MPS 46058
2001 12 11.42567 07 27 51.35 +15 38 42.0 19.1   704 – Lincoln Laboratory ETS, New Mexico MPS 46058
2001 12 18.38688 07 22 59.59 +15 52 47.5 19.5   704 – Lincoln Laboratory ETS, New Mexico MPS 46058
2001 12 18.40195 07 22 58.85 +15 52 50.1 19.6   704 – Lincoln Laboratory ETS, New Mexico MPS 46058
2001 12 18.41804 07 22 58.03 +15 52 52.4 19.5   704 – Lincoln Laboratory ETS, New Mexico MPS 46058
2001 12 18.43294 07 22 57.31 +15 52 54.8 19.1   704 – Lincoln Laboratory ETS, New Mexico MPS 46058
2001 12 18.44803 07 22 56.72 +15 52 55.8 19.5   704 – Lincoln Laboratory ETS, New Mexico MPS 46058
2001 12 25.40320 07 17 07.30 +16 11 29.4 20.3   608 – Haleakala-AMOS MPS 46058
2001 12 25.41356 07 17 06.76 +16 11 31.2 20.1   608 – Haleakala-AMOS MPS 46058
2001 12 25.42404 07 17 06.15 +16 11 33.5 20.4   608 – Haleakala-AMOS MPS 46058
2002 01 09.32620 07 02 50.09 +17 02 11.2 19.0   704 – Lincoln Laboratory ETS, New Mexico MPS 48094
2002 01 09.34135 07 02 49.17 +17 02 13.4 19.3   704 – Lincoln Laboratory ETS, New Mexico MPS 48094
2002 01 09.35651 07 02 48.21 +17 02 17.5 19.0   704 – Lincoln Laboratory ETS, New Mexico MPS 48094
2002 01 09.37169 07 02 47.29 +17 02 21.6 19.2   704 – Lincoln Laboratory ETS, New Mexico MPS 48094
2002 01 09.38697 07 02 46.40 +17 02 24.1 19.1   704 – Lincoln Laboratory ETS, New Mexico MPS 48094
